Weather History for Centerville, IA

Change the Weather History Date:

Thursday, October 31, 2013

  Actual Average Record
Temperature  
Mean Temperature 52 °F -  
Max Temperature 62 °F 59 °F 86 °F (1950)
Min Temperature 41 °F 42 °F 18 °F (1949)
Degree Days  
Heating Degree Days 14    
Growing Degree Days 2 (Base 50)    
Moisture  
Dew Point 49 °F    
Average Humidity 100    
Maximum Humidity 100    
Minimum Humidity 100    
Precipitation  
Precipitation 0.00 in - - ()
Sea Level Pressure  
Sea Level Pressure 29.57 in    
Wind  
Wind Speed 11 mph (West)    
Max Wind Speed 18 mph    
Max Gust Speed 23 mph    
Visibility 8 miles    
Events Rain    
Averages and records for this station are not official NWS values.
T = Trace of Precipitation, MM = Missing Value Source: NWS Daily Summary

Daily Weather History Graph

Daily Weather History Graph

Search for Another Location

Airport:

Trip Planner

Search our weather history database for the weather conditions in past years. The results will help you decide how hot, cold, wet, or windy it might be!

Date:

Astronomy

Oct. 31, 2013 Rise Set
Actual Time 7:40 AM CDT 6:08 PM CDT
Civil Twilight 7:12 AM CDT 6:37 PM CDT
Nautical Twilight 6:40 AM CDT 7:09 PM CDT
Astronomical Twilight 6:08 AM CDT 7:41 PM CDT
Moon 4:30 AM CDT (10/31) 4:27 PM CDT (10/31)
Length of Visible Light 11h 24m
Length of Day
10h 27m
Waning Crescent, 10% of the Moon is Illuminated
Oct 31
Waning Crescent
Nov 3
New
Nov 9
First Quarter
Nov 17
Full
Nov 25
Last Quarter

Hourly Weather History & Observations

Time (CDT) Temp. Windchill Dew Point Humidity Pressure Visibility Wind Dir Wind Speed Gust Speed Precip Events Conditions
12:15 AM 62.6 °F - 62.6 °F 100% 29.69 in 10.0 mi South 18.4 mph 23.0 mph N/A   Unknown
12:35 AM 62.6 °F - 62.6 °F 100% 29.68 in 10.0 mi South 12.7 mph - N/A   Overcast
12:55 AM 62.6 °F - 62.6 °F 100% 29.68 in 10.0 mi South 12.7 mph 18.4 mph N/A   Overcast
1:15 AM 62.6 °F - 62.6 °F 100% 29.67 in 10.0 mi South 11.5 mph - N/A   Overcast
1:35 AM 62.6 °F - 62.6 °F 100% 29.66 in 10.0 mi SSW 13.8 mph 18.4 mph N/A   Overcast
1:55 AM 62.6 °F - 62.6 °F 100% 29.66 in 10.0 mi SSW 11.5 mph 19.6 mph N/A   Overcast
2:15 AM 62.6 °F - 62.6 °F 100% 29.65 in 9.0 mi SSW 11.5 mph 18.4 mph N/A   Overcast
2:35 AM 62.6 °F - 62.6 °F 100% 29.65 in 8.0 mi SSW 13.8 mph - N/A   Overcast
2:55 AM 62.6 °F - 62.6 °F 100% 29.64 in 5.0 mi SSW 12.7 mph - N/A   Mist
3:15 AM 60.8 °F - 60.8 °F 100% 29.64 in 3.0 mi SSW 12.7 mph - N/A   Mist
3:35 AM 57.2 °F - 57.2 °F 100% 29.64 in 9.0 mi West 11.5 mph - N/A   Unknown
3:55 AM 57.2 °F - 57.2 °F 100% 29.64 in 3.0 mi West 9.2 mph - N/A   Mist
4:15 AM 55.4 °F - 55.4 °F 100% 29.64 in 9.0 mi WNW 9.2 mph - N/A   Unknown
4:35 AM 53.6 °F - 53.6 °F 100% 29.63 in 3.0 mi WNW 6.9 mph - N/A   Mist
4:55 AM 53.6 °F - 53.6 °F 100% 29.64 in 3.0 mi WNW 6.9 mph - N/A Rain Light Rain
5:15 AM 53.6 °F - 53.6 °F 100% 29.63 in 4.0 mi WNW 11.5 mph - N/A Rain Light Rain
5:35 AM 51.8 °F - 51.8 °F 100% 29.63 in 10.0 mi NW 9.2 mph - N/A   Unknown
5:55 AM 50.0 °F - 50.0 °F 100% 29.63 in 8.0 mi WNW 11.5 mph - N/A   Unknown
6:15 AM 50.0 °F - 50.0 °F 100% 29.63 in 2.5 mi WNW 8.1 mph - N/A   Mist
6:35 AM 50.0 °F - 50.0 °F 100% 29.64 in 1.8 mi NW 9.2 mph - N/A Rain Light Rain
6:55 AM 50.0 °F - 50.0 °F 100% 29.63 in 3.0 mi NNW 8.1 mph - N/A   Mist
7:15 AM 50.0 °F - 50.0 °F 100% 29.62 in 3.0 mi NW 8.1 mph - N/A   Mist
7:35 AM 50.0 °F - 50.0 °F 100% 29.60 in 10.0 mi NW 8.1 mph - N/A   Unknown
7:55 AM 48.2 °F - 48.2 °F 100% 29.60 in 10.0 mi NW 5.8 mph - N/A   Unknown
8:15 AM 48.2 °F - 48.2 °F 100% 29.63 in 3.0 mi SW 4.6 mph - N/A Rain Heavy Rain
8:35 AM 48.2 °F - 48.2 °F 100% 29.61 in 3.0 mi Calm Calm - N/A Rain Rain
8:55 AM 48.2 °F - 48.2 °F 100% 29.61 in 4.0 mi NW 5.8 mph - N/A Rain Rain
9:15 AM 48.2 °F - 48.2 °F 100% 29.61 in 5.0 mi WNW 10.4 mph - N/A Rain Rain
9:35 AM 48.2 °F - 48.2 °F 100% 29.59 in 8.0 mi NW 9.2 mph - N/A Rain Light Rain
9:55 AM 48.2 °F - 48.2 °F 100% 29.59 in 6.0 mi NW 6.9 mph - N/A Rain Rain
10:15 AM 46.4 °F 39.5 °F 46.4 °F 100% 29.58 in 3.0 mi NW 17.3 mph - N/A Rain Rain
10:35 AM 46.4 °F 40.4 °F 46.4 °F 100% 29.59 in 5.0 mi NW 13.8 mph - N/A Rain Rain
10:55 AM 46.4 °F 40.7 °F 46.4 °F 100% 29.58 in 6.0 mi NW 12.7 mph - N/A Rain Rain
11:15 AM 46.4 °F 41.1 °F 46.4 °F 100% 29.57 in 10.0 mi NNW 11.5 mph - N/A Rain Light Rain
11:35 AM 46.4 °F 41.5 °F 46.4 °F 100% 29.56 in 10.0 mi NNW 10.4 mph 16.1 mph N/A Rain Light Rain
11:55 AM 46.4 °F 41.1 °F 46.4 °F 100% 29.54 in 10.0 mi NNW 11.5 mph - N/A Rain Light Rain
12:15 PM 44.6 °F 38.4 °F 44.6 °F 100% 29.55 in 10.0 mi NW 12.7 mph - N/A Rain Light Rain
12:35 PM 46.4 °F 39.8 °F 46.4 °F 100% 29.54 in 10.0 mi NW 16.1 mph - N/A Rain Light Rain
12:55 PM 46.4 °F 40.1 °F 46.4 °F 100% 29.54 in 10.0 mi NW 15.0 mph 19.6 mph N/A   Unknown
1:15 PM 44.6 °F 38.8 °F 44.6 °F 100% 29.53 in 10.0 mi NW 11.5 mph 19.6 mph N/A   Unknown
1:35 PM 44.6 °F 39.7 °F 44.6 °F 100% 29.51 in 10.0 mi NW 9.2 mph - N/A Rain Light Rain
1:55 PM 44.6 °F 40.2 °F 44.6 °F 100% 29.51 in 10.0 mi WNW 8.1 mph - N/A Rain Light Rain
2:15 PM 44.6 °F 39.7 °F 44.6 °F 100% 29.50 in 10.0 mi NW 9.2 mph - N/A Rain Light Rain
2:35 PM 44.6 °F 40.7 °F 44.6 °F 100% 29.49 in 10.0 mi NW 6.9 mph - N/A Rain Light Rain
2:55 PM 44.6 °F 40.2 °F 44.6 °F 100% 29.49 in 10.0 mi WNW 8.1 mph - N/A Rain Light Rain
3:15 PM 44.6 °F 39.7 °F 44.6 °F 100% 29.49 in 10.0 mi WNW 9.2 mph - N/A Rain Light Rain
3:35 PM 44.6 °F 38.4 °F 44.6 °F 100% 29.49 in 10.0 mi West 12.7 mph - N/A   Unknown
3:55 PM 44.6 °F 39.2 °F 44.6 °F 100% 29.50 in 10.0 mi WSW 10.4 mph - N/A Rain Light Rain
4:15 PM 44.6 °F 40.7 °F 44.6 °F 100% 29.50 in 10.0 mi SW 6.9 mph - N/A Rain Light Rain
4:35 PM 44.6 °F 40.7 °F 44.6 °F 100% 29.50 in 10.0 mi WSW 6.9 mph - N/A   Unknown
4:55 PM 44.6 °F 40.7 °F 44.6 °F 100% 29.50 in 10.0 mi WSW 6.9 mph - N/A Rain Light Rain
5:15 PM 44.6 °F 39.7 °F 44.6 °F 100% 29.51 in 10.0 mi WSW 9.2 mph - N/A   Unknown
5:35 PM 44.6 °F 40.2 °F 44.6 °F 100% 29.51 in 10.0 mi WSW 8.1 mph - N/A   Unknown
5:55 PM 44.6 °F 40.2 °F 44.6 °F 100% 29.51 in 10.0 mi WSW 8.1 mph - N/A   Unknown
6:15 PM 44.6 °F 40.2 °F 44.6 °F 100% 29.52 in 10.0 mi WSW 8.1 mph - N/A   Unknown
6:35 PM 44.6 °F 40.7 °F 44.6 °F 100% 29.52 in 10.0 mi WSW 6.9 mph - N/A   Unknown
6:55 PM 44.6 °F 40.2 °F 44.6 °F 100% 29.53 in 10.0 mi SW 8.1 mph - N/A   Unknown
7:15 PM 42.8 °F 37.5 °F 42.8 °F 100% 29.53 in 10.0 mi SW 9.2 mph - N/A   Unknown
7:35 PM 42.8 °F 38.0 °F 42.8 °F 100% 29.53 in 10.0 mi SW 8.1 mph - N/A   Unknown
7:55 PM 42.8 °F 38.0 °F 42.8 °F 100% 29.53 in 10.0 mi SW 8.1 mph - N/A   Unknown
8:15 PM 41.0 °F 36.4 °F 41.0 °F 100% 29.53 in 10.0 mi SW 6.9 mph - N/A   Unknown
8:35 PM 42.8 °F 37.5 °F 42.8 °F 100% 29.53 in 10.0 mi SW 9.2 mph - N/A   Unknown
8:55 PM 42.8 °F 37.5 °F 42.8 °F 100% 29.53 in 10.0 mi SW 9.2 mph - N/A   Unknown
9:15 PM 42.8 °F 37.5 °F 42.8 °F 100% 29.52 in 10.0 mi SW 9.2 mph - N/A   Unknown
9:35 PM 44.6 °F 38.8 °F 44.6 °F 100% 29.53 in 10.0 mi SW 11.5 mph - N/A   Unknown
9:55 PM 44.6 °F 39.2 °F 44.6 °F 100% 29.53 in 10.0 mi SW 10.4 mph - N/A   Unknown
10:15 PM 44.6 °F 38.8 °F 44.6 °F 100% 29.54 in 10.0 mi SW 11.5 mph - N/A   Unknown
10:35 PM 44.6 °F 39.2 °F 44.6 °F 100% 29.54 in 10.0 mi SW 10.4 mph - N/A   Unknown
10:55 PM 46.4 °F 41.5 °F 46.4 °F 100% 29.55 in 10.0 mi WSW 10.4 mph - N/A   Unknown
11:15 PM 46.4 °F 41.5 °F 46.4 °F 100% 29.55 in 10.0 mi WSW 10.4 mph - N/A   Unknown
11:35 PM 44.6 °F 40.7 °F 44.6 °F 100% 29.55 in 10.0 mi WSW 6.9 mph - N/A   Unknown
11:55 PM 44.6 °F 40.7 °F 44.6 °F 100% 29.55 in 10.0 mi SW 6.9 mph - N/A   Clear